Terug naar catalogus

COSMOS 2251 DEB

ActiefLEO
NORAD 37284·DEBRIS·🇷🇺 Russia

Gelanceerd Jun 16, 1993 vanaf Plesetsk Cosmodrome

Loading…

Volgende Passages (komende 24 uur)

TLE

VersSource: Space-Track

Epoch: Sep 12, 2026, 15:49 UTC

1 37284U 93036BHY 26255.65956069  .00002281  00000-0  10775-2 0  9996
2 37284  74.0164  31.2905 0159221 118.7113 256.1223 14.13852050630458

Volg COSMOS 2251 DEB in realtime met AllMySat

Download on the App Store